Index of /20260428/WXO-DD/model_gdps/15km/00/030
Name Last modified Size Description
Parent Directory -
20260428T00Z_MSC_GDPS_AbsoluteVorticity_IsbL-0200_LatLon0.15_PT030H.grib2 2026-04-28 04:04 1.5M
20260428T00Z_MSC_GDPS_AbsoluteVorticity_IsbL-0250_LatLon0.15_PT030H.grib2 2026-04-28 04:04 1.3M
20260428T00Z_MSC_GDPS_AbsoluteVorticity_IsbL-0500_LatLon0.15_PT030H.grib2 2026-04-28 04:04 1.5M
20260428T00Z_MSC_GDPS_AbsoluteVorticity_IsbL-0700_LatLon0.15_PT030H.grib2 2026-04-28 04:04 1.3M
20260428T00Z_MSC_GDPS_AbsoluteVorticity_IsbL-0850_LatLon0.15_PT030H.grib2 2026-04-28 04:04 1.6M
20260428T00Z_MSC_GDPS_AirTemp-Max_AGL-2m_LatLon0.15_PT030H.grib2 2026-04-28 04:04 739K
20260428T00Z_MSC_GDPS_AirTemp-Min_AGL-2m_LatLon0.15_PT030H.grib2 2026-04-28 04:04 784K
20260428T00Z_MSC_GDPS_AirTemp_AGL-120m_LatLon0.15_PT030H.grib2 2026-04-28 04:04 904K
20260428T00Z_MSC_GDPS_AirTemp_AGL-2m_LatLon0.15_PT030H.grib2 2026-04-28 04:04 1.0M
20260428T00Z_MSC_GDPS_AirTemp_AGL-40m_LatLon0.15_PT030H.grib2 2026-04-28 04:04 807K
20260428T00Z_MSC_GDPS_AirTemp_AGL-80m_LatLon0.15_PT030H.grib2 2026-04-28 04:04 913K
20260428T00Z_MSC_GDPS_AirTemp_IsbL-0001_LatLon0.15_PT030H.grib2 2026-04-28 04:04 654K
20260428T00Z_MSC_GDPS_AirTemp_IsbL-0005_LatLon0.15_PT030H.grib2 2026-04-28 04:04 690K
20260428T00Z_MSC_GDPS_AirTemp_IsbL-0010_LatLon0.15_PT030H.grib2 2026-04-28 04:04 761K
20260428T00Z_MSC_GDPS_AirTemp_IsbL-0020_LatLon0.15_PT030H.grib2 2026-04-28 04:04 785K
20260428T00Z_MSC_GDPS_AirTemp_IsbL-0030_LatLon0.15_PT030H.grib2 2026-04-28 04:04 750K
20260428T00Z_MSC_GDPS_AirTemp_IsbL-0050_LatLon0.15_PT030H.grib2 2026-04-28 04:04 806K
20260428T00Z_MSC_GDPS_AirTemp_IsbL-0100_LatLon0.15_PT030H.grib2 2026-04-28 04:04 1.0M
20260428T00Z_MSC_GDPS_AirTemp_IsbL-0150_LatLon0.15_PT030H.grib2 2026-04-28 04:04 1.0M
20260428T00Z_MSC_GDPS_AirTemp_IsbL-0175_LatLon0.15_PT030H.grib2 2026-04-28 04:04 961K
20260428T00Z_MSC_GDPS_AirTemp_IsbL-0200_LatLon0.15_PT030H.grib2 2026-04-28 04:04 972K
20260428T00Z_MSC_GDPS_AirTemp_IsbL-0225_LatLon0.15_PT030H.grib2 2026-04-28 04:04 1.0M
20260428T00Z_MSC_GDPS_AirTemp_IsbL-0250_LatLon0.15_PT030H.grib2 2026-04-28 04:04 1.0M
20260428T00Z_MSC_GDPS_AirTemp_IsbL-0275_LatLon0.15_PT030H.grib2 2026-04-28 04:04 1.0M
20260428T00Z_MSC_GDPS_AirTemp_IsbL-0300_LatLon0.15_PT030H.grib2 2026-04-28 04:04 1.0M
20260428T00Z_MSC_GDPS_AirTemp_IsbL-0350_LatLon0.15_PT030H.grib2 2026-04-28 04:04 929K
20260428T00Z_MSC_GDPS_AirTemp_IsbL-0400_LatLon0.15_PT030H.grib2 2026-04-28 04:04 939K
20260428T00Z_MSC_GDPS_AirTemp_IsbL-0450_LatLon0.15_PT030H.grib2 2026-04-28 04:04 961K
20260428T00Z_MSC_GDPS_AirTemp_IsbL-0500_LatLon0.15_PT030H.grib2 2026-04-28 04:04 1.0M
20260428T00Z_MSC_GDPS_AirTemp_IsbL-0550_LatLon0.15_PT030H.grib2 2026-04-28 04:04 799K
20260428T00Z_MSC_GDPS_AirTemp_IsbL-0600_LatLon0.15_PT030H.grib2 2026-04-28 04:04 893K
20260428T00Z_MSC_GDPS_AirTemp_IsbL-0650_LatLon0.15_PT030H.grib2 2026-04-28 04:04 915K
20260428T00Z_MSC_GDPS_AirTemp_IsbL-0700_LatLon0.15_PT030H.grib2 2026-04-28 04:04 949K
20260428T00Z_MSC_GDPS_AirTemp_IsbL-0750_LatLon0.15_PT030H.grib2 2026-04-28 04:04 1.0M
20260428T00Z_MSC_GDPS_AirTemp_IsbL-0800_LatLon0.15_PT030H.grib2 2026-04-28 04:04 1.1M
20260428T00Z_MSC_GDPS_AirTemp_IsbL-0850_LatLon0.15_PT030H.grib2 2026-04-28 04:04 1.1M
20260428T00Z_MSC_GDPS_AirTemp_IsbL-0875_LatLon0.15_PT030H.grib2 2026-04-28 04:04 1.2M
20260428T00Z_MSC_GDPS_AirTemp_IsbL-0900_LatLon0.15_PT030H.grib2 2026-04-28 04:04 1.1M
20260428T00Z_MSC_GDPS_AirTemp_IsbL-0925_LatLon0.15_PT030H.grib2 2026-04-28 04:04 1.1M
20260428T00Z_MSC_GDPS_AirTemp_IsbL-0950_LatLon0.15_PT030H.grib2 2026-04-28 04:04 1.1M
20260428T00Z_MSC_GDPS_AirTemp_IsbL-0970_LatLon0.15_PT030H.grib2 2026-04-28 04:04 1.1M
20260428T00Z_MSC_GDPS_AirTemp_IsbL-0985_LatLon0.15_PT030H.grib2 2026-04-28 04:04 1.1M
20260428T00Z_MSC_GDPS_AirTemp_IsbL-1000_LatLon0.15_PT030H.grib2 2026-04-28 04:04 1.1M
20260428T00Z_MSC_GDPS_AirTemp_IsbL-1015_LatLon0.15_PT030H.grib2 2026-04-28 04:04 1.1M
20260428T00Z_MSC_GDPS_Albedo_Sfc_LatLon0.15_PT030H.grib2 2026-04-28 04:04 245K
20260428T00Z_MSC_GDPS_CAPE_Sfc_LatLon0.15_PT030H.grib2 2026-04-28 04:04 3.8M
20260428T00Z_MSC_GDPS_CIN_Sfc_LatLon0.15_PT030H.grib2 2026-04-28 04:04 2.9M
20260428T00Z_MSC_GDPS_CloudWater_EAtm_LatLon0.15_PT030H.grib2 2026-04-28 04:04 528K
20260428T00Z_MSC_GDPS_ConvectivePrecip-Accum_Sfc_LatLon0.15_PT030H.grib2 2026-04-28 04:04 2.6M
20260428T00Z_MSC_GDPS_DewPointDepression_AGL-2m_LatLon0.15_PT030H.grib2 2026-04-28 04:04 758K
20260428T00Z_MSC_GDPS_DewPointDepression_IsbL-0010_LatLon0.15_PT030H.grib2 2026-04-28 04:04 71K
20260428T00Z_MSC_GDPS_DewPointDepression_IsbL-0020_LatLon0.15_PT030H.grib2 2026-04-28 04:04 87K
20260428T00Z_MSC_GDPS_DewPointDepression_IsbL-0030_LatLon0.15_PT030H.grib2 2026-04-28 04:04 71K
20260428T00Z_MSC_GDPS_DewPointDepression_IsbL-0050_LatLon0.15_PT030H.grib2 2026-04-28 04:04 332K
20260428T00Z_MSC_GDPS_DewPointDepression_IsbL-0100_LatLon0.15_PT030H.grib2 2026-04-28 04:04 417K
20260428T00Z_MSC_GDPS_DewPointDepression_IsbL-0150_LatLon0.15_PT030H.grib2 2026-04-28 04:04 472K
20260428T00Z_MSC_GDPS_DewPointDepression_IsbL-0175_LatLon0.15_PT030H.grib2 2026-04-28 04:04 564K
20260428T00Z_MSC_GDPS_DewPointDepression_IsbL-0200_LatLon0.15_PT030H.grib2 2026-04-28 04:04 673K
20260428T00Z_MSC_GDPS_DewPointDepression_IsbL-0225_LatLon0.15_PT030H.grib2 2026-04-28 04:04 780K
20260428T00Z_MSC_GDPS_DewPointDepression_IsbL-0250_LatLon0.15_PT030H.grib2 2026-04-28 04:04 868K
20260428T00Z_MSC_GDPS_DewPointDepression_IsbL-0275_LatLon0.15_PT030H.grib2 2026-04-28 04:04 887K
20260428T00Z_MSC_GDPS_DewPointDepression_IsbL-0300_LatLon0.15_PT030H.grib2 2026-04-28 04:04 933K
20260428T00Z_MSC_GDPS_DewPointDepression_IsbL-0350_LatLon0.15_PT030H.grib2 2026-04-28 04:04 960K
20260428T00Z_MSC_GDPS_DewPointDepression_IsbL-0400_LatLon0.15_PT030H.grib2 2026-04-28 04:04 1.0M
20260428T00Z_MSC_GDPS_DewPointDepression_IsbL-0450_LatLon0.15_PT030H.grib2 2026-04-28 04:04 1.0M
20260428T00Z_MSC_GDPS_DewPointDepression_IsbL-0500_LatLon0.15_PT030H.grib2 2026-04-28 04:04 1.0M
20260428T00Z_MSC_GDPS_DewPointDepression_IsbL-0550_LatLon0.15_PT030H.grib2 2026-04-28 04:04 1.0M
20260428T00Z_MSC_GDPS_DewPointDepression_IsbL-0600_LatLon0.15_PT030H.grib2 2026-04-28 04:04 1.0M
20260428T00Z_MSC_GDPS_DewPointDepression_IsbL-0650_LatLon0.15_PT030H.grib2 2026-04-28 04:04 1.0M
20260428T00Z_MSC_GDPS_DewPointDepression_IsbL-0700_LatLon0.15_PT030H.grib2 2026-04-28 04:04 1.1M
20260428T00Z_MSC_GDPS_DewPointDepression_IsbL-0750_LatLon0.15_PT030H.grib2 2026-04-28 04:04 1.1M
20260428T00Z_MSC_GDPS_DewPointDepression_IsbL-0800_LatLon0.15_PT030H.grib2 2026-04-28 04:04 1.1M
20260428T00Z_MSC_GDPS_DewPointDepression_IsbL-0850_LatLon0.15_PT030H.grib2 2026-04-28 04:04 1.1M
20260428T00Z_MSC_GDPS_DewPointDepression_IsbL-0875_LatLon0.15_PT030H.grib2 2026-04-28 04:04 1.1M
20260428T00Z_MSC_GDPS_DewPointDepression_IsbL-0900_LatLon0.15_PT030H.grib2 2026-04-28 04:04 1.1M
20260428T00Z_MSC_GDPS_DewPointDepression_IsbL-0925_LatLon0.15_PT030H.grib2 2026-04-28 04:04 1.0M
20260428T00Z_MSC_GDPS_DewPointDepression_IsbL-0950_LatLon0.15_PT030H.grib2 2026-04-28 04:04 1.0M
20260428T00Z_MSC_GDPS_DewPointDepression_IsbL-0970_LatLon0.15_PT030H.grib2 2026-04-28 04:04 1.0M
20260428T00Z_MSC_GDPS_DewPointDepression_IsbL-0985_LatLon0.15_PT030H.grib2 2026-04-28 04:04 1.0M
20260428T00Z_MSC_GDPS_DewPointDepression_IsbL-1000_LatLon0.15_PT030H.grib2 2026-04-28 04:04 968K
20260428T00Z_MSC_GDPS_DewPointDepression_IsbL-1015_LatLon0.15_PT030H.grib2 2026-04-28 04:04 910K
20260428T00Z_MSC_GDPS_DewPoint_AGL-2m_LatLon0.15_PT030H.grib2 2026-04-28 04:04 604K
20260428T00Z_MSC_GDPS_DownwardLongwaveRadiationFlux-Accum_Sfc_LatLon0.15_PT030H.grib2 2026-04-28 04:04 752K
20260428T00Z_MSC_GDPS_DownwardShortwaveRadiationFlux-Accum_NTAtm_LatLon0.15_PT030H.grib2 2026-04-28 04:04 225K
20260428T00Z_MSC_GDPS_DownwardShortwaveRadiationFlux-Accum_Sfc_LatLon0.15_PT030H.grib2 2026-04-28 04:04 1.0M
20260428T00Z_MSC_GDPS_FreezingRain-Accum12h_Sfc_LatLon0.15_PT030H.grib2 2026-04-28 04:04 104K
20260428T00Z_MSC_GDPS_FreezingRain-Accum1h_Sfc_LatLon0.15_PT030H.grib2 2026-04-28 04:04 42K
20260428T00Z_MSC_GDPS_FreezingRain-Accum24h_Sfc_LatLon0.15_PT030H.grib2 2026-04-28 04:04 141K
20260428T00Z_MSC_GDPS_FreezingRain-Accum3h_Sfc_LatLon0.15_PT030H.grib2 2026-04-28 04:04 44K
20260428T00Z_MSC_GDPS_FreezingRain-Accum6h_Sfc_LatLon0.15_PT030H.grib2 2026-04-28 04:04 69K
20260428T00Z_MSC_GDPS_FreezingRain-Accum_Sfc_LatLon0.15_PT030H.grib2 2026-04-28 04:04 196K
20260428T00Z_MSC_GDPS_GeopotentialHeight_IsbL-0001_LatLon0.15_PT030H.grib2 2026-04-28 04:04 390K
20260428T00Z_MSC_GDPS_GeopotentialHeight_IsbL-0005_LatLon0.15_PT030H.grib2 2026-04-28 04:04 492K
20260428T00Z_MSC_GDPS_GeopotentialHeight_IsbL-0010_LatLon0.15_PT030H.grib2 2026-04-28 04:04 478K
20260428T00Z_MSC_GDPS_GeopotentialHeight_IsbL-0020_LatLon0.15_PT030H.grib2 2026-04-28 04:04 420K
20260428T00Z_MSC_GDPS_GeopotentialHeight_IsbL-0030_LatLon0.15_PT030H.grib2 2026-04-28 04:04 575K
20260428T00Z_MSC_GDPS_GeopotentialHeight_IsbL-0050_LatLon0.15_PT030H.grib2 2026-04-28 04:04 577K
20260428T00Z_MSC_GDPS_GeopotentialHeight_IsbL-0100_LatLon0.15_PT030H.grib2 2026-04-28 04:04 610K
20260428T00Z_MSC_GDPS_GeopotentialHeight_IsbL-0150_LatLon0.15_PT030H.grib2 2026-04-28 04:04 631K
20260428T00Z_MSC_GDPS_GeopotentialHeight_IsbL-0175_LatLon0.15_PT030H.grib2 2026-04-28 04:04 637K
20260428T00Z_MSC_GDPS_GeopotentialHeight_IsbL-0200_LatLon0.15_PT030H.grib2 2026-04-28 04:04 642K
20260428T00Z_MSC_GDPS_GeopotentialHeight_IsbL-0225_LatLon0.15_PT030H.grib2 2026-04-28 04:04 638K
20260428T00Z_MSC_GDPS_GeopotentialHeight_IsbL-0250_LatLon0.15_PT030H.grib2 2026-04-28 04:04 646K
20260428T00Z_MSC_GDPS_GeopotentialHeight_IsbL-0275_LatLon0.15_PT030H.grib2 2026-04-28 04:04 645K
20260428T00Z_MSC_GDPS_GeopotentialHeight_IsbL-0300_LatLon0.15_PT030H.grib2 2026-04-28 04:04 638K
20260428T00Z_MSC_GDPS_GeopotentialHeight_IsbL-0350_LatLon0.15_PT030H.grib2 2026-04-28 04:04 635K
20260428T00Z_MSC_GDPS_GeopotentialHeight_IsbL-0400_LatLon0.15_PT030H.grib2 2026-04-28 04:04 630K
20260428T00Z_MSC_GDPS_GeopotentialHeight_IsbL-0450_LatLon0.15_PT030H.grib2 2026-04-28 04:04 620K
20260428T00Z_MSC_GDPS_GeopotentialHeight_IsbL-0500_LatLon0.15_PT030H.grib2 2026-04-28 04:04 604K
20260428T00Z_MSC_GDPS_GeopotentialHeight_IsbL-0550_LatLon0.15_PT030H.grib2 2026-04-28 04:04 595K
20260428T00Z_MSC_GDPS_GeopotentialHeight_IsbL-0600_LatLon0.15_PT030H.grib2 2026-04-28 04:04 525K
20260428T00Z_MSC_GDPS_GeopotentialHeight_IsbL-0650_LatLon0.15_PT030H.grib2 2026-04-28 04:04 521K
20260428T00Z_MSC_GDPS_GeopotentialHeight_IsbL-0700_LatLon0.15_PT030H.grib2 2026-04-28 04:04 521K
20260428T00Z_MSC_GDPS_GeopotentialHeight_IsbL-0750_LatLon0.15_PT030H.grib2 2026-04-28 04:04 693K
20260428T00Z_MSC_GDPS_GeopotentialHeight_IsbL-0800_LatLon0.15_PT030H.grib2 2026-04-28 04:04 702K
20260428T00Z_MSC_GDPS_GeopotentialHeight_IsbL-0850_LatLon0.15_PT030H.grib2 2026-04-28 04:04 708K
20260428T00Z_MSC_GDPS_GeopotentialHeight_IsbL-0875_LatLon0.15_PT030H.grib2 2026-04-28 04:04 717K
20260428T00Z_MSC_GDPS_GeopotentialHeight_IsbL-0900_LatLon0.15_PT030H.grib2 2026-04-28 04:04 720K
20260428T00Z_MSC_GDPS_GeopotentialHeight_IsbL-0925_LatLon0.15_PT030H.grib2 2026-04-28 04:04 732K
20260428T00Z_MSC_GDPS_GeopotentialHeight_IsbL-0950_LatLon0.15_PT030H.grib2 2026-04-28 04:04 736K
20260428T00Z_MSC_GDPS_GeopotentialHeight_IsbL-0970_LatLon0.15_PT030H.grib2 2026-04-28 04:04 748K
20260428T00Z_MSC_GDPS_GeopotentialHeight_IsbL-0985_LatLon0.15_PT030H.grib2 2026-04-28 04:04 764K
20260428T00Z_MSC_GDPS_GeopotentialHeight_IsbL-1000_LatLon0.15_PT030H.grib2 2026-04-28 04:04 786K
20260428T00Z_MSC_GDPS_GeopotentialHeight_IsbL-1015_LatLon0.15_PT030H.grib2 2026-04-28 04:04 806K
20260428T00Z_MSC_GDPS_Humidex_Sfc_LatLon0.15_PT030H.grib2 2026-04-28 04:04 5.3M
20260428T00Z_MSC_GDPS_IcePellets-Accum12h_Sfc_LatLon0.15_PT030H.grib2 2026-04-28 04:04 27K
20260428T00Z_MSC_GDPS_IcePellets-Accum1h_Sfc_LatLon0.15_PT030H.grib2 2026-04-28 04:04 8.5K
20260428T00Z_MSC_GDPS_IcePellets-Accum24h_Sfc_LatLon0.15_PT030H.grib2 2026-04-28 04:04 31K
20260428T00Z_MSC_GDPS_IcePellets-Accum3h_Sfc_LatLon0.15_PT030H.grib2 2026-04-28 04:04 12K
20260428T00Z_MSC_GDPS_IcePellets-Accum6h_Sfc_LatLon0.15_PT030H.grib2 2026-04-28 04:04 17K
20260428T00Z_MSC_GDPS_IcePellets-Accum_Sfc_LatLon0.15_PT030H.grib2 2026-04-28 04:04 44K
20260428T00Z_MSC_GDPS_KIndex_Sfc_LatLon0.15_PT030H.grib2 2026-04-28 04:04 6.5M
20260428T00Z_MSC_GDPS_LatentHeatNetFlux_Sfc_LatLon0.15_PT030H.grib2 2026-04-28 04:04 534K
20260428T00Z_MSC_GDPS_LiftedIndex-MU-VT_IsbL-0500_LatLon0.15_PT030H.grib2 2026-04-28 04:04 5.3M
20260428T00Z_MSC_GDPS_NetLongwaveRadiationFlux-Accum_Sfc_LatLon0.15_PT030H.grib2 2026-04-28 04:04 1.3M
20260428T00Z_MSC_GDPS_NetShortwaveRadiationFlux-Accum_Sfc_LatLon0.15_PT030H.grib2 2026-04-28 04:04 966K
20260428T00Z_MSC_GDPS_O3MixingRatio_LatLon0.15_PT030H.grib2 2026-04-28 04:52 2.4M
20260428T00Z_MSC_GDPS_O3_EAtm_LatLon0.15_PT030H.grib2 2026-04-28 04:52 2.5M
20260428T00Z_MSC_GDPS_PlanetaryBoundaryLayerHeight_Sfc_LatLon0.15_PT030H.grib2 2026-04-28 04:04 2.5M
20260428T00Z_MSC_GDPS_Precip-Accum12h_Sfc_LatLon0.15_PT030H.grib2 2026-04-28 04:04 4.4M
20260428T00Z_MSC_GDPS_Precip-Accum1h_Sfc_LatLon0.15_PT030H.grib2 2026-04-28 04:04 3.3M
20260428T00Z_MSC_GDPS_Precip-Accum24h_Sfc_LatLon0.15_PT030H.grib2 2026-04-28 04:04 4.6M
20260428T00Z_MSC_GDPS_Precip-Accum3h_Sfc_LatLon0.15_PT030H.grib2 2026-04-28 04:04 3.6M
20260428T00Z_MSC_GDPS_Precip-Accum6h_Sfc_LatLon0.15_PT030H.grib2 2026-04-28 04:04 4.0M
20260428T00Z_MSC_GDPS_Precip-Accum_Sfc_LatLon0.15_PT030H.grib2 2026-04-28 04:04 4.6M
20260428T00Z_MSC_GDPS_PrecipRate_Sfc_LatLon0.15_PT030H.grib2 2026-04-28 04:04 3.0M
20260428T00Z_MSC_GDPS_PrecipType-Instant_Sfc_LatLon0.15_PT030H.grib2 2026-04-28 04:04 1.6M
20260428T00Z_MSC_GDPS_Pressure_MSL_LatLon0.15_PT030H.grib2 2026-04-28 04:04 718K
20260428T00Z_MSC_GDPS_Pressure_PVU-1.5_LatLon0.15_PT030H.grib2 2026-04-28 04:04 5.8M
20260428T00Z_MSC_GDPS_Pressure_PVU-1_LatLon0.15_PT030H.grib2 2026-04-28 04:04 6.0M
20260428T00Z_MSC_GDPS_Pressure_PVU-2_LatLon0.15_PT030H.grib2 2026-04-28 04:04 5.6M
20260428T00Z_MSC_GDPS_Pressure_Sfc_LatLon0.15_PT030H.grib2 2026-04-28 04:04 1.1M
20260428T00Z_MSC_GDPS_RadiativeTemp_Sfc_LatLon0.15_PT030H.grib2 2026-04-28 04:04 488K
20260428T00Z_MSC_GDPS_Rain-Accum12h_Sfc_LatLon0.15_PT030H.grib2 2026-04-28 04:04 2.9M
20260428T00Z_MSC_GDPS_Rain-Accum1h_Sfc_LatLon0.15_PT030H.grib2 2026-04-28 04:04 1.7M
20260428T00Z_MSC_GDPS_Rain-Accum24h_Sfc_LatLon0.15_PT030H.grib2 2026-04-28 04:04 3.2M
20260428T00Z_MSC_GDPS_Rain-Accum3h_Sfc_LatLon0.15_PT030H.grib2 2026-04-28 04:04 1.9M
20260428T00Z_MSC_GDPS_Rain-Accum6h_Sfc_LatLon0.15_PT030H.grib2 2026-04-28 04:04 2.5M
20260428T00Z_MSC_GDPS_Rain-Accum_Sfc_LatLon0.15_PT030H.grib2 2026-04-28 04:04 3.4M
20260428T00Z_MSC_GDPS_RelativeHumidity_AGL-2m_LatLon0.15_PT030H.grib2 2026-04-28 04:04 1.1M
20260428T00Z_MSC_GDPS_RelativeHumidity_IsbL-0010_LatLon0.15_PT030H.grib2 2026-04-28 04:04 182K
20260428T00Z_MSC_GDPS_RelativeHumidity_IsbL-0020_LatLon0.15_PT030H.grib2 2026-04-28 04:04 295K
20260428T00Z_MSC_GDPS_RelativeHumidity_IsbL-0030_LatLon0.15_PT030H.grib2 2026-04-28 04:04 354K
20260428T00Z_MSC_GDPS_RelativeHumidity_IsbL-0050_LatLon0.15_PT030H.grib2 2026-04-28 04:04 418K
20260428T00Z_MSC_GDPS_RelativeHumidity_IsbL-0100_LatLon0.15_PT030H.grib2 2026-04-28 04:04 512K
20260428T00Z_MSC_GDPS_RelativeHumidity_IsbL-0150_LatLon0.15_PT030H.grib2 2026-04-28 04:04 667K
20260428T00Z_MSC_GDPS_RelativeHumidity_IsbL-0175_LatLon0.15_PT030H.grib2 2026-04-28 04:04 794K
20260428T00Z_MSC_GDPS_RelativeHumidity_IsbL-0200_LatLon0.15_PT030H.grib2 2026-04-28 04:04 694K
20260428T00Z_MSC_GDPS_RelativeHumidity_IsbL-0225_LatLon0.15_PT030H.grib2 2026-04-28 04:04 780K
20260428T00Z_MSC_GDPS_RelativeHumidity_IsbL-0250_LatLon0.15_PT030H.grib2 2026-04-28 04:04 855K
20260428T00Z_MSC_GDPS_RelativeHumidity_IsbL-0275_LatLon0.15_PT030H.grib2 2026-04-28 04:04 878K
20260428T00Z_MSC_GDPS_RelativeHumidity_IsbL-0300_LatLon0.15_PT030H.grib2 2026-04-28 04:04 922K
20260428T00Z_MSC_GDPS_RelativeHumidity_IsbL-0350_LatLon0.15_PT030H.grib2 2026-04-28 04:04 946K
20260428T00Z_MSC_GDPS_RelativeHumidity_IsbL-0400_LatLon0.15_PT030H.grib2 2026-04-28 04:04 967K
20260428T00Z_MSC_GDPS_RelativeHumidity_IsbL-0450_LatLon0.15_PT030H.grib2 2026-04-28 04:04 1.0M
20260428T00Z_MSC_GDPS_RelativeHumidity_IsbL-0500_LatLon0.15_PT030H.grib2 2026-04-28 04:04 1.0M
20260428T00Z_MSC_GDPS_RelativeHumidity_IsbL-0550_LatLon0.15_PT030H.grib2 2026-04-28 04:04 1.1M
20260428T00Z_MSC_GDPS_RelativeHumidity_IsbL-0600_LatLon0.15_PT030H.grib2 2026-04-28 04:04 1.1M
20260428T00Z_MSC_GDPS_RelativeHumidity_IsbL-0650_LatLon0.15_PT030H.grib2 2026-04-28 04:04 1.1M
20260428T00Z_MSC_GDPS_RelativeHumidity_IsbL-0700_LatLon0.15_PT030H.grib2 2026-04-28 04:04 1.1M
20260428T00Z_MSC_GDPS_RelativeHumidity_IsbL-0750_LatLon0.15_PT030H.grib2 2026-04-28 04:04 1.2M
20260428T00Z_MSC_GDPS_RelativeHumidity_IsbL-0800_LatLon0.15_PT030H.grib2 2026-04-28 04:04 1.2M
20260428T00Z_MSC_GDPS_RelativeHumidity_IsbL-0850_LatLon0.15_PT030H.grib2 2026-04-28 04:04 1.3M
20260428T00Z_MSC_GDPS_RelativeHumidity_IsbL-0875_LatLon0.15_PT030H.grib2 2026-04-28 04:04 1.3M
20260428T00Z_MSC_GDPS_RelativeHumidity_IsbL-0900_LatLon0.15_PT030H.grib2 2026-04-28 04:04 1.2M
20260428T00Z_MSC_GDPS_RelativeHumidity_IsbL-0925_LatLon0.15_PT030H.grib2 2026-04-28 04:04 1.2M
20260428T00Z_MSC_GDPS_RelativeHumidity_IsbL-0950_LatLon0.15_PT030H.grib2 2026-04-28 04:04 1.2M
20260428T00Z_MSC_GDPS_RelativeHumidity_IsbL-0970_LatLon0.15_PT030H.grib2 2026-04-28 04:04 1.2M
20260428T00Z_MSC_GDPS_RelativeHumidity_IsbL-0985_LatLon0.15_PT030H.grib2 2026-04-28 04:04 1.1M
20260428T00Z_MSC_GDPS_RelativeHumidity_IsbL-1000_LatLon0.15_PT030H.grib2 2026-04-28 04:04 1.1M
20260428T00Z_MSC_GDPS_RelativeHumidity_IsbL-1015_LatLon0.15_PT030H.grib2 2026-04-28 04:04 1.0M
20260428T00Z_MSC_GDPS_RelativeVorticity_IsbL-0200_LatLon0.15_PT030H.grib2 2026-04-28 04:04 1.5M
20260428T00Z_MSC_GDPS_RelativeVorticity_IsbL-0250_LatLon0.15_PT030H.grib2 2026-04-28 04:04 1.6M
20260428T00Z_MSC_GDPS_RelativeVorticity_IsbL-0500_LatLon0.15_PT030H.grib2 2026-04-28 04:04 1.5M
20260428T00Z_MSC_GDPS_RelativeVorticity_IsbL-0700_LatLon0.15_PT030H.grib2 2026-04-28 04:04 1.3M
20260428T00Z_MSC_GDPS_RelativeVorticity_IsbL-0850_LatLon0.15_PT030H.grib2 2026-04-28 04:04 1.6M
20260428T00Z_MSC_GDPS_Runoff-Accum_Sfc_LatLon0.15_PT030H.grib2 2026-04-28 04:04 100K
20260428T00Z_MSC_GDPS_SensibleHeatNetFlux_Sfc_LatLon0.15_PT030H.grib2 2026-04-28 04:04 648K
20260428T00Z_MSC_GDPS_ShowalterIndex_IsbL-0500_LatLon0.15_PT030H.grib2 2026-04-28 04:04 6.2M
20260428T00Z_MSC_GDPS_Snow-Accum12h_Sfc_LatLon0.15_PT030H.grib2 2026-04-28 04:04 1.7M
20260428T00Z_MSC_GDPS_Snow-Accum1h_Sfc_LatLon0.15_PT030H.grib2 2026-04-28 04:04 1.3M
20260428T00Z_MSC_GDPS_Snow-Accum24h_Sfc_LatLon0.15_PT030H.grib2 2026-04-28 04:04 1.5M
20260428T00Z_MSC_GDPS_Snow-Accum3h_Sfc_LatLon0.15_PT030H.grib2 2026-04-28 04:04 1.2M
20260428T00Z_MSC_GDPS_Snow-Accum6h_Sfc_LatLon0.15_PT030H.grib2 2026-04-28 04:04 1.6M
20260428T00Z_MSC_GDPS_Snow-Accum_Sfc_LatLon0.15_PT030H.grib2 2026-04-28 04:04 1.9M
20260428T00Z_MSC_GDPS_SnowDensity_Sfc_LatLon0.15_PT030H.grib2 2026-04-28 04:04 263K
20260428T00Z_MSC_GDPS_SnowDepth_Sfc_LatLon0.15_PT030H.grib2 2026-04-28 04:04 1.7M
20260428T00Z_MSC_GDPS_SoilTemp_DBS-0to10cm_LatLon0.15_PT030H.grib2 2026-04-28 04:04 498K
20260428T00Z_MSC_GDPS_SoilTemp_Sfc_LatLon0.15_PT030H.grib2 2026-04-28 04:04 576K
20260428T00Z_MSC_GDPS_SoilVolumetricIceContent_Sfc_LatLon0.15_PT030H.grib2 2026-04-28 04:04 210K
20260428T00Z_MSC_GDPS_SoilVolumetricWaterContent_DBS-0to10cm_LatLon0.15_PT030H.grib2 2026-04-28 04:04 579K
20260428T00Z_MSC_GDPS_SoilVolumetricWaterContent_DBS-0to1cm_LatLon0.15_PT030H.grib2 2026-04-28 04:04 647K
20260428T00Z_MSC_GDPS_SpecificHumidity_AGL-120m_LatLon0.15_PT030H.grib2 2026-04-28 04:04 1.1M
20260428T00Z_MSC_GDPS_SpecificHumidity_AGL-2m_LatLon0.15_PT030H.grib2 2026-04-28 04:04 1.2M
20260428T00Z_MSC_GDPS_SpecificHumidity_AGL-40m_LatLon0.15_PT030H.grib2 2026-04-28 04:04 1.1M
20260428T00Z_MSC_GDPS_SpecificHumidity_AGL-80m_LatLon0.15_PT030H.grib2 2026-04-28 04:04 1.1M
20260428T00Z_MSC_GDPS_SpecificHumidity_IsbL-0001_LatLon0.15_PT030H.grib2 2026-04-28 04:04 1.3M
20260428T00Z_MSC_GDPS_SpecificHumidity_IsbL-0005_LatLon0.15_PT030H.grib2 2026-04-28 04:04 1.2M
20260428T00Z_MSC_GDPS_SpecificHumidity_IsbL-0010_LatLon0.15_PT030H.grib2 2026-04-28 04:04 1.4M
20260428T00Z_MSC_GDPS_SpecificHumidity_IsbL-0020_LatLon0.15_PT030H.grib2 2026-04-28 04:04 1.4M
20260428T00Z_MSC_GDPS_SpecificHumidity_IsbL-0030_LatLon0.15_PT030H.grib2 2026-04-28 04:04 1.4M
20260428T00Z_MSC_GDPS_SpecificHumidity_IsbL-0050_LatLon0.15_PT030H.grib2 2026-04-28 04:04 1.7M
20260428T00Z_MSC_GDPS_SpecificHumidity_IsbL-0100_LatLon0.15_PT030H.grib2 2026-04-28 04:04 1.1M
20260428T00Z_MSC_GDPS_SpecificHumidity_IsbL-0150_LatLon0.15_PT030H.grib2 2026-04-28 04:04 1.3M
20260428T00Z_MSC_GDPS_SpecificHumidity_IsbL-0175_LatLon0.15_PT030H.grib2 2026-04-28 04:04 1.3M
20260428T00Z_MSC_GDPS_SpecificHumidity_IsbL-0200_LatLon0.15_PT030H.grib2 2026-04-28 04:04 1.3M
20260428T00Z_MSC_GDPS_SpecificHumidity_IsbL-0225_LatLon0.15_PT030H.grib2 2026-04-28 04:04 1.3M
20260428T00Z_MSC_GDPS_SpecificHumidity_IsbL-0250_LatLon0.15_PT030H.grib2 2026-04-28 04:04 1.4M
20260428T00Z_MSC_GDPS_SpecificHumidity_IsbL-0275_LatLon0.15_PT030H.grib2 2026-04-28 04:04 1.3M
20260428T00Z_MSC_GDPS_SpecificHumidity_IsbL-0300_LatLon0.15_PT030H.grib2 2026-04-28 04:04 1.2M
20260428T00Z_MSC_GDPS_SpecificHumidity_IsbL-0350_LatLon0.15_PT030H.grib2 2026-04-28 04:04 1.5M
20260428T00Z_MSC_GDPS_SpecificHumidity_IsbL-0400_LatLon0.15_PT030H.grib2 2026-04-28 04:04 1.4M
20260428T00Z_MSC_GDPS_SpecificHumidity_IsbL-0450_LatLon0.15_PT030H.grib2 2026-04-28 04:04 1.6M
20260428T00Z_MSC_GDPS_SpecificHumidity_IsbL-0500_LatLon0.15_PT030H.grib2 2026-04-28 04:04 1.4M
20260428T00Z_MSC_GDPS_SpecificHumidity_IsbL-0550_LatLon0.15_PT030H.grib2 2026-04-28 04:04 1.6M
20260428T00Z_MSC_GDPS_SpecificHumidity_IsbL-0600_LatLon0.15_PT030H.grib2 2026-04-28 04:04 1.7M
20260428T00Z_MSC_GDPS_SpecificHumidity_IsbL-0650_LatLon0.15_PT030H.grib2 2026-04-28 04:04 1.5M
20260428T00Z_MSC_GDPS_SpecificHumidity_IsbL-0700_LatLon0.15_PT030H.grib2 2026-04-28 04:04 1.6M
20260428T00Z_MSC_GDPS_SpecificHumidity_IsbL-0750_LatLon0.15_PT030H.grib2 2026-04-28 04:04 1.7M
20260428T00Z_MSC_GDPS_SpecificHumidity_IsbL-0800_LatLon0.15_PT030H.grib2 2026-04-28 04:04 1.8M
20260428T00Z_MSC_GDPS_SpecificHumidity_IsbL-0850_LatLon0.15_PT030H.grib2 2026-04-28 04:04 1.9M
20260428T00Z_MSC_GDPS_SpecificHumidity_IsbL-0875_LatLon0.15_PT030H.grib2 2026-04-28 04:04 1.9M
20260428T00Z_MSC_GDPS_SpecificHumidity_IsbL-0900_LatLon0.15_PT030H.grib2 2026-04-28 04:04 1.9M
20260428T00Z_MSC_GDPS_SpecificHumidity_IsbL-0925_LatLon0.15_PT030H.grib2 2026-04-28 04:04 1.9M
20260428T00Z_MSC_GDPS_SpecificHumidity_IsbL-0950_LatLon0.15_PT030H.grib2 2026-04-28 04:04 1.5M
20260428T00Z_MSC_GDPS_SpecificHumidity_IsbL-0970_LatLon0.15_PT030H.grib2 2026-04-28 04:04 1.5M
20260428T00Z_MSC_GDPS_SpecificHumidity_IsbL-0985_LatLon0.15_PT030H.grib2 2026-04-28 04:04 1.5M
20260428T00Z_MSC_GDPS_SpecificHumidity_IsbL-1000_LatLon0.15_PT030H.grib2 2026-04-28 04:04 1.5M
20260428T00Z_MSC_GDPS_SpecificHumidity_IsbL-1015_LatLon0.15_PT030H.grib2 2026-04-28 04:04 1.4M
20260428T00Z_MSC_GDPS_SpecificHumidity_Sfc_LatLon0.15_PT030H.grib2 2026-04-28 04:04 663K
20260428T00Z_MSC_GDPS_Thickness_IsbL-0850to0700_LatLon0.15_PT030H.grib2 2026-04-28 04:04 468K
20260428T00Z_MSC_GDPS_Thickness_IsbL-1000to0500_LatLon0.15_PT030H.grib2 2026-04-28 04:04 375K
20260428T00Z_MSC_GDPS_Thickness_IsbL-1000to0850_LatLon0.15_PT030H.grib2 2026-04-28 04:04 488K
20260428T00Z_MSC_GDPS_TotalCloudCover_Sfc_LatLon0.15_PT030H.grib2 2026-04-28 04:04 825K
20260428T00Z_MSC_GDPS_TotalTotalsIndex_Sfc_LatLon0.15_PT030H.grib2 2026-04-28 04:04 6.2M
20260428T00Z_MSC_GDPS_UVIndex-ClearSky_Sfc_LatLon0.15_PT030H.grib2 2026-04-28 04:52 1.1M
20260428T00Z_MSC_GDPS_UVIndex_Sfc_LatLon0.15_PT030H.grib2 2026-04-28 04:52 1.4M
20260428T00Z_MSC_GDPS_UpwardLongwaveRadiationFlux_NTAtm_LatLon0.15_PT030H.grib2 2026-04-28 04:04 1.1M
20260428T00Z_MSC_GDPS_VerticalVelocity_IsbL-0200_LatLon0.15_PT030H.grib2 2026-04-28 04:04 1.2M
20260428T00Z_MSC_GDPS_VerticalVelocity_IsbL-0250_LatLon0.15_PT030H.grib2 2026-04-28 04:04 1.0M
20260428T00Z_MSC_GDPS_VerticalVelocity_IsbL-0500_LatLon0.15_PT030H.grib2 2026-04-28 04:04 1.0M
20260428T00Z_MSC_GDPS_VerticalVelocity_IsbL-0600_LatLon0.15_PT030H.grib2 2026-04-28 04:04 1.1M
20260428T00Z_MSC_GDPS_VerticalVelocity_IsbL-0700_LatLon0.15_PT030H.grib2 2026-04-28 04:04 1.1M
20260428T00Z_MSC_GDPS_VerticalVelocity_IsbL-0850_LatLon0.15_PT030H.grib2 2026-04-28 04:04 1.3M
20260428T00Z_MSC_GDPS_WindChill_Sfc_LatLon0.15_PT030H.grib2 2026-04-28 04:04 5.3M
20260428T00Z_MSC_GDPS_WindDir_AGL-10m_LatLon0.15_PT030H.grib2 2026-04-28 04:04 1.3M
20260428T00Z_MSC_GDPS_WindDir_AGL-120m_LatLon0.15_PT030H.grib2 2026-04-28 04:04 1.4M
20260428T00Z_MSC_GDPS_WindDir_AGL-40m_LatLon0.15_PT030H.grib2 2026-04-28 04:04 1.4M
20260428T00Z_MSC_GDPS_WindDir_AGL-80m_LatLon0.15_PT030H.grib2 2026-04-28 04:04 1.4M
20260428T00Z_MSC_GDPS_WindDir_IsbL-0001_LatLon0.15_PT030H.grib2 2026-04-28 04:04 675K
20260428T00Z_MSC_GDPS_WindDir_IsbL-0005_LatLon0.15_PT030H.grib2 2026-04-28 04:04 790K
20260428T00Z_MSC_GDPS_WindDir_IsbL-0010_LatLon0.15_PT030H.grib2 2026-04-28 04:04 865K
20260428T00Z_MSC_GDPS_WindDir_IsbL-0020_LatLon0.15_PT030H.grib2 2026-04-28 04:04 938K
20260428T00Z_MSC_GDPS_WindDir_IsbL-0030_LatLon0.15_PT030H.grib2 2026-04-28 04:04 928K
20260428T00Z_MSC_GDPS_WindDir_IsbL-0050_LatLon0.15_PT030H.grib2 2026-04-28 04:04 950K
20260428T00Z_MSC_GDPS_WindDir_IsbL-0100_LatLon0.15_PT030H.grib2 2026-04-28 04:04 1.0M
20260428T00Z_MSC_GDPS_WindDir_IsbL-0150_LatLon0.15_PT030H.grib2 2026-04-28 04:04 1.0M
20260428T00Z_MSC_GDPS_WindDir_IsbL-0175_LatLon0.15_PT030H.grib2 2026-04-28 04:04 1.1M
20260428T00Z_MSC_GDPS_WindDir_IsbL-0200_LatLon0.15_PT030H.grib2 2026-04-28 04:04 1.1M
20260428T00Z_MSC_GDPS_WindDir_IsbL-0225_LatLon0.15_PT030H.grib2 2026-04-28 04:04 1.1M
20260428T00Z_MSC_GDPS_WindDir_IsbL-0250_LatLon0.15_PT030H.grib2 2026-04-28 04:04 1.1M
20260428T00Z_MSC_GDPS_WindDir_IsbL-0275_LatLon0.15_PT030H.grib2 2026-04-28 04:04 1.2M
20260428T00Z_MSC_GDPS_WindDir_IsbL-0300_LatLon0.15_PT030H.grib2 2026-04-28 04:04 1.1M
20260428T00Z_MSC_GDPS_WindDir_IsbL-0350_LatLon0.15_PT030H.grib2 2026-04-28 04:04 1.2M
20260428T00Z_MSC_GDPS_WindDir_IsbL-0400_LatLon0.15_PT030H.grib2 2026-04-28 04:04 1.2M
20260428T00Z_MSC_GDPS_WindDir_IsbL-0450_LatLon0.15_PT030H.grib2 2026-04-28 04:04 1.3M
20260428T00Z_MSC_GDPS_WindDir_IsbL-0500_LatLon0.15_PT030H.grib2 2026-04-28 04:04 1.3M
20260428T00Z_MSC_GDPS_WindDir_IsbL-0550_LatLon0.15_PT030H.grib2 2026-04-28 04:04 1.4M
20260428T00Z_MSC_GDPS_WindDir_IsbL-0600_LatLon0.15_PT030H.grib2 2026-04-28 04:04 1.4M
20260428T00Z_MSC_GDPS_WindDir_IsbL-0650_LatLon0.15_PT030H.grib2 2026-04-28 04:04 1.5M
20260428T00Z_MSC_GDPS_WindDir_IsbL-0700_LatLon0.15_PT030H.grib2 2026-04-28 04:04 1.6M
20260428T00Z_MSC_GDPS_WindDir_IsbL-0750_LatLon0.15_PT030H.grib2 2026-04-28 04:04 1.7M
20260428T00Z_MSC_GDPS_WindDir_IsbL-0800_LatLon0.15_PT030H.grib2 2026-04-28 04:04 1.8M
20260428T00Z_MSC_GDPS_WindDir_IsbL-0850_LatLon0.15_PT030H.grib2 2026-04-28 04:04 1.9M
20260428T00Z_MSC_GDPS_WindDir_IsbL-0875_LatLon0.15_PT030H.grib2 2026-04-28 04:04 1.9M
20260428T00Z_MSC_GDPS_WindDir_IsbL-0900_LatLon0.15_PT030H.grib2 2026-04-28 04:04 2.0M
20260428T00Z_MSC_GDPS_WindDir_IsbL-0925_LatLon0.15_PT030H.grib2 2026-04-28 04:04 2.0M
20260428T00Z_MSC_GDPS_WindDir_IsbL-0950_LatLon0.15_PT030H.grib2 2026-04-28 04:04 2.0M
20260428T00Z_MSC_GDPS_WindDir_IsbL-0970_LatLon0.15_PT030H.grib2 2026-04-28 04:04 2.0M
20260428T00Z_MSC_GDPS_WindDir_IsbL-0985_LatLon0.15_PT030H.grib2 2026-04-28 04:04 2.0M
20260428T00Z_MSC_GDPS_WindDir_IsbL-1000_LatLon0.15_PT030H.grib2 2026-04-28 04:04 2.1M
20260428T00Z_MSC_GDPS_WindDir_IsbL-1015_LatLon0.15_PT030H.grib2 2026-04-28 04:04 2.0M
20260428T00Z_MSC_GDPS_WindGust-Max_AGL-10m_LatLon0.15_PT030H.grib2 2026-04-28 04:04 2.2M
20260428T00Z_MSC_GDPS_WindGust-Min_AGL-10m_LatLon0.15_PT030H.grib2 2026-04-28 04:04 2.2M
20260428T00Z_MSC_GDPS_WindGust_AGL-10m_LatLon0.15_PT030H.grib2 2026-04-28 04:04 2.1M
20260428T00Z_MSC_GDPS_WindSpeed_AGL-10m_LatLon0.15_PT030H.grib2 2026-04-28 04:04 1.1M
20260428T00Z_MSC_GDPS_WindSpeed_AGL-120m_LatLon0.15_PT030H.grib2 2026-04-28 04:04 1.2M
20260428T00Z_MSC_GDPS_WindSpeed_AGL-40m_LatLon0.15_PT030H.grib2 2026-04-28 04:04 1.2M
20260428T00Z_MSC_GDPS_WindSpeed_AGL-80m_LatLon0.15_PT030H.grib2 2026-04-28 04:04 1.2M
20260428T00Z_MSC_GDPS_WindSpeed_IsbL-0001_LatLon0.15_PT030H.grib2 2026-04-28 04:04 643K
20260428T00Z_MSC_GDPS_WindSpeed_IsbL-0005_LatLon0.15_PT030H.grib2 2026-04-28 04:04 699K
20260428T00Z_MSC_GDPS_WindSpeed_IsbL-0010_LatLon0.15_PT030H.grib2 2026-04-28 04:04 635K
20260428T00Z_MSC_GDPS_WindSpeed_IsbL-0020_LatLon0.15_PT030H.grib2 2026-04-28 04:04 669K
20260428T00Z_MSC_GDPS_WindSpeed_IsbL-0030_LatLon0.15_PT030H.grib2 2026-04-28 04:04 869K
20260428T00Z_MSC_GDPS_WindSpeed_IsbL-0050_LatLon0.15_PT030H.grib2 2026-04-28 04:04 910K
20260428T00Z_MSC_GDPS_WindSpeed_IsbL-0100_LatLon0.15_PT030H.grib2 2026-04-28 04:04 1.1M
20260428T00Z_MSC_GDPS_WindSpeed_IsbL-0150_LatLon0.15_PT030H.grib2 2026-04-28 04:04 949K
20260428T00Z_MSC_GDPS_WindSpeed_IsbL-0175_LatLon0.15_PT030H.grib2 2026-04-28 04:04 1.0M
20260428T00Z_MSC_GDPS_WindSpeed_IsbL-0200_LatLon0.15_PT030H.grib2 2026-04-28 04:04 1.1M
20260428T00Z_MSC_GDPS_WindSpeed_IsbL-0225_LatLon0.15_PT030H.grib2 2026-04-28 04:04 1.1M
20260428T00Z_MSC_GDPS_WindSpeed_IsbL-0250_LatLon0.15_PT030H.grib2 2026-04-28 04:04 1.1M
20260428T00Z_MSC_GDPS_WindSpeed_IsbL-0275_LatLon0.15_PT030H.grib2 2026-04-28 04:04 1.1M
20260428T00Z_MSC_GDPS_WindSpeed_IsbL-0300_LatLon0.15_PT030H.grib2 2026-04-28 04:04 1.1M
20260428T00Z_MSC_GDPS_WindSpeed_IsbL-0350_LatLon0.15_PT030H.grib2 2026-04-28 04:04 1.1M
20260428T00Z_MSC_GDPS_WindSpeed_IsbL-0400_LatLon0.15_PT030H.grib2 2026-04-28 04:04 1.1M
20260428T00Z_MSC_GDPS_WindSpeed_IsbL-0450_LatLon0.15_PT030H.grib2 2026-04-28 04:04 1.1M
20260428T00Z_MSC_GDPS_WindSpeed_IsbL-0500_LatLon0.15_PT030H.grib2 2026-04-28 04:04 1.1M
20260428T00Z_MSC_GDPS_WindSpeed_IsbL-0550_LatLon0.15_PT030H.grib2 2026-04-28 04:04 1.1M
20260428T00Z_MSC_GDPS_WindSpeed_IsbL-0600_LatLon0.15_PT030H.grib2 2026-04-28 04:04 1.1M
20260428T00Z_MSC_GDPS_WindSpeed_IsbL-0650_LatLon0.15_PT030H.grib2 2026-04-28 04:04 1.4M
20260428T00Z_MSC_GDPS_WindSpeed_IsbL-0700_LatLon0.15_PT030H.grib2 2026-04-28 04:04 1.5M
20260428T00Z_MSC_GDPS_WindSpeed_IsbL-0750_LatLon0.15_PT030H.grib2 2026-04-28 04:04 1.5M
20260428T00Z_MSC_GDPS_WindSpeed_IsbL-0800_LatLon0.15_PT030H.grib2 2026-04-28 04:04 1.6M
20260428T00Z_MSC_GDPS_WindSpeed_IsbL-0850_LatLon0.15_PT030H.grib2 2026-04-28 04:04 1.7M
20260428T00Z_MSC_GDPS_WindSpeed_IsbL-0875_LatLon0.15_PT030H.grib2 2026-04-28 04:04 1.8M
20260428T00Z_MSC_GDPS_WindSpeed_IsbL-0900_LatLon0.15_PT030H.grib2 2026-04-28 04:04 1.8M
20260428T00Z_MSC_GDPS_WindSpeed_IsbL-0925_LatLon0.15_PT030H.grib2 2026-04-28 04:04 1.8M
20260428T00Z_MSC_GDPS_WindSpeed_IsbL-0950_LatLon0.15_PT030H.grib2 2026-04-28 04:04 1.9M
20260428T00Z_MSC_GDPS_WindSpeed_IsbL-0970_LatLon0.15_PT030H.grib2 2026-04-28 04:04 1.9M
20260428T00Z_MSC_GDPS_WindSpeed_IsbL-0985_LatLon0.15_PT030H.grib2 2026-04-28 04:04 1.9M
20260428T00Z_MSC_GDPS_WindSpeed_IsbL-1000_LatLon0.15_PT030H.grib2 2026-04-28 04:04 1.8M
20260428T00Z_MSC_GDPS_WindSpeed_IsbL-1015_LatLon0.15_PT030H.grib2 2026-04-28 04:04 1.8M
20260428T00Z_MSC_GDPS_WindU_AGL-10m_LatLon0.15_PT030H.grib2 2026-04-28 04:04 1.3M
20260428T00Z_MSC_GDPS_WindU_AGL-120m_LatLon0.15_PT030H.grib2 2026-04-28 04:04 1.0M
20260428T00Z_MSC_GDPS_WindU_AGL-40m_LatLon0.15_PT030H.grib2 2026-04-28 04:04 964K
20260428T00Z_MSC_GDPS_WindU_AGL-80m_LatLon0.15_PT030H.grib2 2026-04-28 04:04 969K
20260428T00Z_MSC_GDPS_WindU_IsbL-0001_LatLon0.15_PT030H.grib2 2026-04-28 04:04 649K
20260428T00Z_MSC_GDPS_WindU_IsbL-0005_LatLon0.15_PT030H.grib2 2026-04-28 04:04 698K
20260428T00Z_MSC_GDPS_WindU_IsbL-0010_LatLon0.15_PT030H.grib2 2026-04-28 04:04 709K
20260428T00Z_MSC_GDPS_WindU_IsbL-0020_LatLon0.15_PT030H.grib2 2026-04-28 04:04 740K
20260428T00Z_MSC_GDPS_WindU_IsbL-0030_LatLon0.15_PT030H.grib2 2026-04-28 04:04 746K
20260428T00Z_MSC_GDPS_WindU_IsbL-0050_LatLon0.15_PT030H.grib2 2026-04-28 04:04 703K
20260428T00Z_MSC_GDPS_WindU_IsbL-0100_LatLon0.15_PT030H.grib2 2026-04-28 04:04 923K
20260428T00Z_MSC_GDPS_WindU_IsbL-0150_LatLon0.15_PT030H.grib2 2026-04-28 04:04 1.0M
20260428T00Z_MSC_GDPS_WindU_IsbL-0175_LatLon0.15_PT030H.grib2 2026-04-28 04:04 1.0M
20260428T00Z_MSC_GDPS_WindU_IsbL-0200_LatLon0.15_PT030H.grib2 2026-04-28 04:04 849K
20260428T00Z_MSC_GDPS_WindU_IsbL-0225_LatLon0.15_PT030H.grib2 2026-04-28 04:04 857K
20260428T00Z_MSC_GDPS_WindU_IsbL-0250_LatLon0.15_PT030H.grib2 2026-04-28 04:04 858K
20260428T00Z_MSC_GDPS_WindU_IsbL-0275_LatLon0.15_PT030H.grib2 2026-04-28 04:04 882K
20260428T00Z_MSC_GDPS_WindU_IsbL-0300_LatLon0.15_PT030H.grib2 2026-04-28 04:04 873K
20260428T00Z_MSC_GDPS_WindU_IsbL-0350_LatLon0.15_PT030H.grib2 2026-04-28 04:04 888K
20260428T00Z_MSC_GDPS_WindU_IsbL-0400_LatLon0.15_PT030H.grib2 2026-04-28 04:04 891K
20260428T00Z_MSC_GDPS_WindU_IsbL-0450_LatLon0.15_PT030H.grib2 2026-04-28 04:04 1.1M
20260428T00Z_MSC_GDPS_WindU_IsbL-0500_LatLon0.15_PT030H.grib2 2026-04-28 04:04 1.1M
20260428T00Z_MSC_GDPS_WindU_IsbL-0550_LatLon0.15_PT030H.grib2 2026-04-28 04:04 1.1M
20260428T00Z_MSC_GDPS_WindU_IsbL-0600_LatLon0.15_PT030H.grib2 2026-04-28 04:04 1.1M
20260428T00Z_MSC_GDPS_WindU_IsbL-0650_LatLon0.15_PT030H.grib2 2026-04-28 04:04 1.2M
20260428T00Z_MSC_GDPS_WindU_IsbL-0700_LatLon0.15_PT030H.grib2 2026-04-28 04:04 1.2M
20260428T00Z_MSC_GDPS_WindU_IsbL-0750_LatLon0.15_PT030H.grib2 2026-04-28 04:04 1.3M
20260428T00Z_MSC_GDPS_WindU_IsbL-0800_LatLon0.15_PT030H.grib2 2026-04-28 04:04 1.3M
20260428T00Z_MSC_GDPS_WindU_IsbL-0850_LatLon0.15_PT030H.grib2 2026-04-28 04:04 1.4M
20260428T00Z_MSC_GDPS_WindU_IsbL-0875_LatLon0.15_PT030H.grib2 2026-04-28 04:04 1.4M
20260428T00Z_MSC_GDPS_WindU_IsbL-0900_LatLon0.15_PT030H.grib2 2026-04-28 04:04 1.5M
20260428T00Z_MSC_GDPS_WindU_IsbL-0925_LatLon0.15_PT030H.grib2 2026-04-28 04:04 1.5M
20260428T00Z_MSC_GDPS_WindU_IsbL-0950_LatLon0.15_PT030H.grib2 2026-04-28 04:04 1.4M
20260428T00Z_MSC_GDPS_WindU_IsbL-0970_LatLon0.15_PT030H.grib2 2026-04-28 04:04 1.4M
20260428T00Z_MSC_GDPS_WindU_IsbL-0985_LatLon0.15_PT030H.grib2 2026-04-28 04:04 1.4M
20260428T00Z_MSC_GDPS_WindU_IsbL-1000_LatLon0.15_PT030H.grib2 2026-04-28 04:04 1.4M
20260428T00Z_MSC_GDPS_WindU_IsbL-1015_LatLon0.15_PT030H.grib2 2026-04-28 04:04 1.3M
20260428T00Z_MSC_GDPS_WindV_AGL-10m_LatLon0.15_PT030H.grib2 2026-04-28 04:04 1.3M
20260428T00Z_MSC_GDPS_WindV_AGL-120m_LatLon0.15_PT030H.grib2 2026-04-28 04:04 1.0M
20260428T00Z_MSC_GDPS_WindV_AGL-40m_LatLon0.15_PT030H.grib2 2026-04-28 04:04 967K
20260428T00Z_MSC_GDPS_WindV_AGL-80m_LatLon0.15_PT030H.grib2 2026-04-28 04:04 972K
20260428T00Z_MSC_GDPS_WindV_IsbL-0001_LatLon0.15_PT030H.grib2 2026-04-28 04:04 711K
20260428T00Z_MSC_GDPS_WindV_IsbL-0005_LatLon0.15_PT030H.grib2 2026-04-28 04:04 860K
20260428T00Z_MSC_GDPS_WindV_IsbL-0010_LatLon0.15_PT030H.grib2 2026-04-28 04:04 888K
20260428T00Z_MSC_GDPS_WindV_IsbL-0020_LatLon0.15_PT030H.grib2 2026-04-28 04:04 853K
20260428T00Z_MSC_GDPS_WindV_IsbL-0030_LatLon0.15_PT030H.grib2 2026-04-28 04:04 854K
20260428T00Z_MSC_GDPS_WindV_IsbL-0050_LatLon0.15_PT030H.grib2 2026-04-28 04:04 908K
20260428T00Z_MSC_GDPS_WindV_IsbL-0100_LatLon0.15_PT030H.grib2 2026-04-28 04:04 1.1M
20260428T00Z_MSC_GDPS_WindV_IsbL-0150_LatLon0.15_PT030H.grib2 2026-04-28 04:04 1.0M
20260428T00Z_MSC_GDPS_WindV_IsbL-0175_LatLon0.15_PT030H.grib2 2026-04-28 04:04 1.0M
20260428T00Z_MSC_GDPS_WindV_IsbL-0200_LatLon0.15_PT030H.grib2 2026-04-28 04:04 845K
20260428T00Z_MSC_GDPS_WindV_IsbL-0225_LatLon0.15_PT030H.grib2 2026-04-28 04:04 853K
20260428T00Z_MSC_GDPS_WindV_IsbL-0250_LatLon0.15_PT030H.grib2 2026-04-28 04:04 852K
20260428T00Z_MSC_GDPS_WindV_IsbL-0275_LatLon0.15_PT030H.grib2 2026-04-28 04:04 877K
20260428T00Z_MSC_GDPS_WindV_IsbL-0300_LatLon0.15_PT030H.grib2 2026-04-28 04:04 925K
20260428T00Z_MSC_GDPS_WindV_IsbL-0350_LatLon0.15_PT030H.grib2 2026-04-28 04:04 877K
20260428T00Z_MSC_GDPS_WindV_IsbL-0400_LatLon0.15_PT030H.grib2 2026-04-28 04:04 880K
20260428T00Z_MSC_GDPS_WindV_IsbL-0450_LatLon0.15_PT030H.grib2 2026-04-28 04:04 1.1M
20260428T00Z_MSC_GDPS_WindV_IsbL-0500_LatLon0.15_PT030H.grib2 2026-04-28 04:04 1.1M
20260428T00Z_MSC_GDPS_WindV_IsbL-0550_LatLon0.15_PT030H.grib2 2026-04-28 04:04 1.1M
20260428T00Z_MSC_GDPS_WindV_IsbL-0600_LatLon0.15_PT030H.grib2 2026-04-28 04:04 1.1M
20260428T00Z_MSC_GDPS_WindV_IsbL-0650_LatLon0.15_PT030H.grib2 2026-04-28 04:04 1.2M
20260428T00Z_MSC_GDPS_WindV_IsbL-0700_LatLon0.15_PT030H.grib2 2026-04-28 04:04 1.2M
20260428T00Z_MSC_GDPS_WindV_IsbL-0750_LatLon0.15_PT030H.grib2 2026-04-28 04:04 1.3M
20260428T00Z_MSC_GDPS_WindV_IsbL-0800_LatLon0.15_PT030H.grib2 2026-04-28 04:04 1.3M
20260428T00Z_MSC_GDPS_WindV_IsbL-0850_LatLon0.15_PT030H.grib2 2026-04-28 04:04 1.4M
20260428T00Z_MSC_GDPS_WindV_IsbL-0875_LatLon0.15_PT030H.grib2 2026-04-28 04:04 1.4M
20260428T00Z_MSC_GDPS_WindV_IsbL-0900_LatLon0.15_PT030H.grib2 2026-04-28 04:04 1.4M
20260428T00Z_MSC_GDPS_WindV_IsbL-0925_LatLon0.15_PT030H.grib2 2026-04-28 04:04 1.4M
20260428T00Z_MSC_GDPS_WindV_IsbL-0950_LatLon0.15_PT030H.grib2 2026-04-28 04:04 1.4M
20260428T00Z_MSC_GDPS_WindV_IsbL-0970_LatLon0.15_PT030H.grib2 2026-04-28 04:04 1.4M
20260428T00Z_MSC_GDPS_WindV_IsbL-0985_LatLon0.15_PT030H.grib2 2026-04-28 04:04 1.4M
20260428T00Z_MSC_GDPS_WindV_IsbL-1000_LatLon0.15_PT030H.grib2 2026-04-28 04:04 1.4M
20260428T00Z_MSC_GDPS_WindV_IsbL-1015_LatLon0.15_PT030H.grib2 2026-04-28 04:04 1.3M